• în Republica Moldova
  • Lista ţărilor
  • Pe 7 zile
  • Temperatura apei
  • Hartă satelitară
  • Meteo pe hartă
  • Widget-uri
  • user-avatar
    Intrare

    Meteo pe oră la Fier

    Astăzi, 29 Mai, Luni

    Timp Temperatura Precipitaţii Vânt Presiune Umiditate
    00:00 +17°C° 0 mm 3 m/s 763 mmHg 75%
    01:00 +17°C° 0 mm 2 m/s 762 mmHg 77%
    02:00 +16°C° 0 mm 2 m/s 762 mmHg 77%
    03:00 +16°C° 0 mm 2 m/s 762 mmHg 77%
    04:00 +16°C° 0 mm 2 m/s 762 mmHg 77%
    05:00 +18°C° 0 mm 2 m/s 762 mmHg 72%
    06:00 +20°C° 0 mm 1 m/s 762 mmHg 67%
    07:00 +21°C° 0 mm 2 m/s 762 mmHg 60%
    08:00 +24°C° 0 mm 1 m/s 762 mmHg 55%
    09:00 +26°C° 0 mm 1 m/s 762 mmHg 49%
    10:00 +27°C° 0 mm 1 m/s 762 mmHg 43%
    11:00 +27°C° 0,1 mm 2 m/s 761 mmHg 43%
    12:00 +27°C° 0,1 mm 3 m/s 761 mmHg 44%
    13:00 +27°C° 0,1 mm 4 m/s 761 mmHg 44%
    14:00 +27°C° 0,1 mm 3 m/s 761 mmHg 47%
    15:00 +26°C° 0,1 mm 3 m/s 761 mmHg 49%
    16:00 +26°C° 0,1 mm 3 m/s 760 mmHg 51%
    17:00 +24°C° 0,1 mm 2 m/s 760 mmHg 59%
    18:00 +21°C° 0,1 mm 2 m/s 760 mmHg 67%
    19:00 +20°C° 0,1 mm 1 m/s 760 mmHg 75%
    20:00 +19°C° 0 mm 1 m/s 760 mmHg 76%
    21:00 +18°C° 0 mm 1 m/s 761 mmHg 78%
    22:00 +18°C° 0 mm 1 m/s 761 mmHg 80%
    23:00 +16°C° 0 mm 1 m/s 761 mmHg 80%

    Mâine, 30 Mai, Marţi

    Timp Temperatura Precipitaţii Vânt Presiune Umiditate
    00:00 +15°C° 0 mm 0 m/s 761 mmHg 81%
    01:00 +15°C° 0 mm 0 m/s 761 mmHg 81%
    02:00 +15°C° 0 mm 0 m/s 761 mmHg 82%
    03:00 +15°C° 0 mm 0 m/s 761 mmHg 83%
    04:00 +15°C° 0 mm 1 m/s 760 mmHg 84%
    05:00 +19°C° 0 mm 1 m/s 761 mmHg 75%
    06:00 +19°C° 0 mm 0 m/s 761 mmHg 67%
    07:00 +21°C° 0 mm 0 m/s 761 mmHg 59%
    08:00 +25°C° 0 mm 1 m/s 761 mmHg 54%
    09:00 +26°C° 0 mm 1 m/s 761 mmHg 50%
    10:00 +27°C° 0 mm 2 m/s 761 mmHg 45%
    11:00 +27°C° 0,1 mm 2 m/s 761 mmHg 44%
    12:00 +28°C° 0,1 mm 3 m/s 761 mmHg 43%
    13:00 +28°C° 0,1 mm 3 m/s 761 mmHg 41%
    14:00 +28°C° 0 mm 3 m/s 761 mmHg 42%
    15:00 +27°C° 0 mm 3 m/s 761 mmHg 42%
    16:00 +27°C° 0 mm 3 m/s 761 mmHg 42%
    17:00 +24°C° 0 mm 2 m/s 761 mmHg 51%
    18:00 +21°C° 0 mm 2 m/s 762 mmHg 60%
    19:00 +19°C° 0 mm 1 m/s 762 mmHg 69%
    20:00 +19°C° 0 mm 1 m/s 762 mmHg 69%
    21:00 +18°C° 0 mm 1 m/s 762 mmHg 69%
    22:00 +16°C° 0 mm 1 m/s 763 mmHg 69%
    23:00 +16°C° 0 mm 1 m/s 763 mmHg 69%

    Poimâine, 31 Mai, Miercuri

    Timp Temperatura Precipitaţii Vânt Presiune Umiditate
    00:00 +16°C° 0 mm 1 m/s 763 mmHg 69%
    01:00 +16°C° 0 mm 1 m/s 763 mmHg 69%
    02:00 +15°C° 0 mm 1 m/s 763 mmHg 69%
    03:00 +15°C° 0 mm 1 m/s 763 mmHg 69%
    04:00 +15°C° 0 mm 1 m/s 763 mmHg 70%
    05:00 +19°C° 0 mm 1 m/s 763 mmHg 63%
    06:00 +21°C° 0 mm 1 m/s 763 mmHg 55%
    07:00 +24°C° 0 mm 1 m/s 763 mmHg 48%
    08:00 +25°C° 0 mm 1 m/s 763 mmHg 46%
    09:00 +26°C° 0 mm 2 m/s 763 mmHg 43%
    10:00 +28°C° 0 mm 2 m/s 763 mmHg 40%
    11:00 +28°C° 0 mm 3 m/s 763 mmHg 39%
    12:00 +29°C° 0 mm 3 m/s 763 mmHg 39%
    13:00 +29°C° 0 mm 4 m/s 763 mmHg 39%
    14:00 +29°C° 0 mm 3 m/s 762 mmHg 41%
    15:00 +28°C° 0 mm 3 m/s 762 mmHg 43%
    16:00 +28°C° 0 mm 3 m/s 762 mmHg 46%
    17:00 +25°C° 0 mm 2 m/s 762 mmHg 56%
    18:00 +23°C° 0 mm 1 m/s 762 mmHg 66%
    19:00 +20°C° 0 mm 1 m/s 762 mmHg 77%
    20:00 +19°C° 0 mm 1 m/s 762 mmHg 79%
    21:00 +19°C° 0 mm 1 m/s 763 mmHg 80%
    22:00 +18°C° 0 mm 1 m/s 763 mmHg 82%
    23:00 +16°C° 0 mm 0 m/s 763 mmHg 82%

    1 Iunie, Joi

    Timp Temperatura Precipitaţii Vânt Presiune Umiditate
    00:00 +15°C° 0 mm 0 m/s 763 mmHg 83%
    01:00 +15°C° 0 mm 0 m/s 763 mmHg 83%
    02:00 +15°C° 0 mm 0 m/s 763 mmHg 82%
    03:00 +16°C° 0 mm 1 m/s 763 mmHg 82%
    04:00 +15°C° 0 mm 1 m/s 763 mmHg 81%
    05:00 +19°C° 0 mm 1 m/s 763 mmHg 70%
    06:00 +22°C° 0 mm 1 m/s 763 mmHg 59%
    07:00 +25°C° 0 mm 1 m/s 763 mmHg 48%
    08:00 +26°C° 0 mm 1 m/s 763 mmHg 43%
    09:00 +28°C° 0 mm 1 m/s 763 mmHg 39%
    10:00 +29°C° 0 mm 1 m/s 762 mmHg 34%
    11:00 +30°C° 0 mm 2 m/s 762 mmHg 34%
    12:00 +30°C° 0 mm 3 m/s 762 mmHg 34%
    13:00 +32°C° 0 mm 4 m/s 762 mmHg 33%
    14:00 +30°C° 0 mm 4 m/s 762 mmHg 36%
    15:00 +29°C° 0 mm 3 m/s 762 mmHg 39%
    16:00 +28°C° 0 mm 3 m/s 761 mmHg 43%
    17:00 +26°C° 0 mm 3 m/s 761 mmHg 52%
    18:00 +23°C° 0 mm 2 m/s 762 mmHg 61%
    19:00 +20°C° 0 mm 2 m/s 762 mmHg 71%
    20:00 +19°C° 0 mm 2 m/s 762 mmHg 73%
    21:00 +19°C° 0 mm 1 m/s 762 mmHg 76%
    22:00 +18°C° 0 mm 1 m/s 762 mmHg 78%
    23:00 +18°C° 0 mm 1 m/s 762 mmHg 78%

    2 Iunie, Vineri

    Timp Temperatura Precipitaţii Vânt Presiune Umiditate
    00:00 +18°C° 0 mm 1 m/s 762 mmHg 77%
    01:00 +16°C° 0 mm 1 m/s 762 mmHg 76%
    02:00 +16°C° 0 mm 1 m/s 762 mmHg 76%
    03:00 +16°C° 0 mm 1 m/s 762 mmHg 75%
    04:00 +16°C° 0 mm 1 m/s 762 mmHg 75%
    05:00 +19°C° 0 mm 1 m/s 762 mmHg 65%
    06:00 +22°C° 0 mm 1 m/s 762 mmHg 56%
    07:00 +25°C° 0 mm 1 m/s 762 mmHg 46%
    08:00 +27°C° 0 mm 1 m/s 762 mmHg 43%
    09:00 +28°C° 0 mm 2 m/s 762 mmHg 39%
    10:00 +30°C° 0 mm 2 m/s 762 mmHg 35%
    11:00 +30°C° 0 mm 3 m/s 761 mmHg 35%
    12:00 +31°C° 0 mm 3 m/s 761 mmHg 35%
    13:00 +32°C° 0 mm 4 m/s 761 mmHg 35%
    14:00 +30°C° 0 mm 4 m/s 761 mmHg 38%
    15:00 +30°C° 0 mm 4 m/s 760 mmHg 42%
    16:00 +29°C° 0 mm 4 m/s 760 mmHg 45%
    17:00 +26°C° 0 mm 3 m/s 760 mmHg 56%
    18:00 +24°C° 0 mm 3 m/s 760 mmHg 67%
    19:00 +21°C° 0 mm 2 m/s 760 mmHg 78%
    20:00 +20°C° 0 mm 2 m/s 761 mmHg 80%
    21:00 +20°C° 0 mm 1 m/s 761 mmHg 81%
    22:00 +19°C° 0 mm 1 m/s 761 mmHg 83%
    23:00 +19°C° 0 mm 1 m/s 761 mmHg 83%

    3 Iunie, Sâmbătă

    Timp Temperatura Precipitaţii Vânt Presiune Umiditate
    00:00 +18°C° 0 mm 1 m/s 760 mmHg 82%
    01:00 +18°C° 0 mm 1 m/s 760 mmHg 81%
    02:00 +18°C° 0 mm 1 m/s 760 mmHg 81%
    03:00 +18°C° 0 mm 1 m/s 760 mmHg 80%
    04:00 +16°C° 0 mm 1 m/s 760 mmHg 80%
    05:00 +20°C° 0 mm 1 m/s 760 mmHg 70%
    06:00 +23°C° 0 mm 1 m/s 760 mmHg 61%
    07:00 +25°C° 0 mm 1 m/s 760 mmHg 51%
    08:00 +27°C° 0 mm 1 m/s 760 mmHg 46%
    09:00 +28°C° 0 mm 2 m/s 760 mmHg 41%
    10:00 +30°C° 0 mm 2 m/s 760 mmHg 37%
    11:00 +30°C° 0 mm 3 m/s 760 mmHg 36%
    12:00 +31°C° 0 mm 3 m/s 759 mmHg 35%
    13:00 +32°C° 0 mm 4 m/s 759 mmHg 34%
    14:00 +30°C° 0 mm 4 m/s 759 mmHg 35%
    15:00 +30°C° 0 mm 4 m/s 759 mmHg 37%
    16:00 +29°C° 0 mm 4 m/s 759 mmHg 39%
    17:00 +27°C° 0 mm 3 m/s 759 mmHg 48%
    18:00 +24°C° 0 mm 2 m/s 759 mmHg 57%
    19:00 +21°C° 0 mm 2 m/s 759 mmHg 67%
    20:00 +21°C° 0 mm 1 m/s 759 mmHg 68%
    21:00 +20°C° 0 mm 1 m/s 759 mmHg 69%
    22:00 +19°C° 0 mm 1 m/s 760 mmHg 71%
    23:00 +19°C° 0 mm 1 m/s 759 mmHg 70%
    Arată mai mult